This is the latest recevied weather packets stored in our database for station/object DM1HF-13. If no packets are shown the sender has not sent any weather packets the latest 10 day(s).
| Time | Temp. | Humidity | Pressure | Rain* | Wind** | Luminosity | Snow |
|---|---|---|---|---|---|---|---|
| 1777813816 | 29.44° C | 24% | 1013.9 hPa | 0 mm | - | 380 W/m² | - |
| 1777813516 | 29.44° C | 24% | 1013.9 hPa | 0 mm | - | 311 W/m² | - |
| 1777813216 | 28.89° C | 24% | 1014 hPa | 0 mm | - | 437 W/m² | - |
| 1777812916 | 28.89° C | 24% | 1014 hPa | 0 mm | - | 415 W/m² | - |
| 1777812616 | 28.89° C | 25% | 1014.1 hPa | 0 mm | - | 332 W/m² | - |
| 1777812316 | 28.89° C | 26% | 1014 hPa | 0 mm | - | 259 W/m² | - |
| 1777812016 | 28.89° C | 26% | 1014.1 hPa | 0 mm | - | 490 W/m² | - |
| 1777811716 | 28.89° C | 25% | 1014.2 hPa | 0 mm | - | 453 W/m² | - |
| 1777811416 | 28.33° C | 25% | 1014.1 hPa | 0 mm | - | 305 W/m² | - |
| 1777811116 | 29.44° C | 24% | 1014.2 hPa | 0 mm | - | 285 W/m² | - |
| 1777810816 | 29.44° C | 26% | 1014.2 hPa | 0 mm | - | 393 W/m² | - |
| 1777810517 | 28.89° C | 25% | 1014.2 hPa | 0 mm | - | 544 W/m² | - |
| 1777810216 | 28.89° C | 26% | 1014.3 hPa | 0 mm | - | 588 W/m² | - |
| 1777809916 | 28.33° C | 26% | 1014.3 hPa | 0 mm | - | 574 W/m² | - |
| 1777809616 | 28.33° C | 26% | 1014.4 hPa | 0 mm | - | 676 W/m² | - |
| 1777809316 | 28.33° C | 26% | 1014.4 hPa | 0 mm | - | 632 W/m² | - |
| 1777809016 | 28.33° C | 27% | 1014.5 hPa | 0 mm | - | 552 W/m² | - |
| 1777808716 | 28.33° C | 29% | 1014.5 hPa | 0 mm | - | 451 W/m² | - |
| 1777808416 | 28.33° C | 27% | 1014.6 hPa | 0 mm | - | 452 W/m² | - |
| 1777808116 | 28.33° C | 28% | 1014.7 hPa | 0 mm | - | 542 W/m² | - |
| 1777807816 | 27.78° C | 29% | 1014.7 hPa | 0 mm | - | 424 W/m² | - |
| 1777807516 | 28.33° C | 28% | 1014.8 hPa | 0 mm | - | 517 W/m² | - |
| 1777807216 | 27.78° C | 26% | 1014.8 hPa | 0 mm | - | 558 W/m² | - |
| 1777806916 | 27.78° C | 28% | 1014.8 hPa | 0 mm | - | 252 W/m² | - |
| 1777806616 | 27.78° C | 28% | 1014.8 hPa | 0 mm | - | 500 W/m² | - |
* Rain latest hour (hover to see other rain measurements)
** Current wind speed in m/s (hover to see current wind gust speed)